Wind_Speed
21 20 20 23 26 25 24 24 25 25 25 24 23 24 25 26 28 26 27 24 24 20 22 25 34 42 45 47 48 49 51 58 57 57 59 37 58 48 49 48 44 39 45 46 28
23 24 23 23 23 25 24 23 24 25 26 23 21 22 23 24 25 22 21 19 17 18 20 23 29 35 36 38 40 44 47 49 44 50 54 50 63 44 53 46 43 41 44 41 38
22 24 24 24 21 18 19 22 24 24 25 24 21 20 22 21 21 17 15 14 12 16 18 21 26 29 30 32 32 35 39 37 38 50 49 51 52 46 48 48 40 43 45 46 43
23 23 23 23 22 22 21 20 22 24 24 24 22 19 19 19 16 15 12 10 8 11 15 19 25 28 28 27 28 30 33 37 41 46 43 43 44 48 47 43 42 44 49 45 40
23 22 23 22 22 21 22 20 20 23 24 23 22 19 18 18 15 13 11 6 4 6 12 18 23 25 27 27 27 27 29 31 33 37 39 40 41 39 41 44 45 41 43 41 41
25 27 27 25 22 21 20 21 21 21 23 22 21 19 17 17 15 12 11 6 4 4 11 17 22 23 27 28 27 27 28 28 29 31 34 35 35 39 40 41 41 41 43 42 44
29 29 29 27 22 21 20 19 19 18 21 21 20 19 17 16 15 12 8 7 7 8 9 15 19 23 25 27 28 30 29 31 31 32 34 35 34 35 34 38 39 40 42 41 41
24 26 26 23 21 18 19 18 18 18 18 19 21 19 17 15 14 13 10 6 5 12 12 12 16 20 22 26 24 29 31 32 33 36 37 38 34 35 38 39 38 39 41 42 42
17 19 19 17 18 19 16 16 18 18 18 22 21 20 17 17 14 13 11 7 4 6 16 17 16 17 18 18 19 22 24 23 23 36 35 39 37 40 42 40 41 42 43 44 45
17 18 16 15 14 17 18 17 17 19 20 20 18 20 18 17 15 13 12 11 7 6 10 19 21 19 18 18 14 11 17 23 25 28 31 33 35 37 40 40 42 45 47 48 47
19 18 17 15 16 12 14 17 18 19 17 17 16 19 19 17 17 16 14 13 11 8 8 13 17 22 20 23 25 29 25 24 25 30 32 32 35 36 39 40 41 43 45 48 50
20 18 17 16 15 14 14 14 14 15 14 14 16 18 20 20 17 17 16 15 13 11 10 11 15 17 24 27 29 28 28 28 30 33 35 34 34 35 35 36 37 40 43 44 47
22 20 20 17 17 17 16 14 14 16 17 16 18 19 18 21 21 17 17 16 15 14 13 13 10 12 14 15 16 19 22 24 27 30 29 27 33 31 31 33 36 38 41 43 45
22 23 22 20 19 17 16 15 13 13 18 14 15 15 16 15 21 23 23 17 17 16 16 16 17 16 16 17 17 17 20 24 23 26 26 25 30 27 30 33 34 33 34 38 43
24 26 26 24 20 18 16 14 13 12 10 20 16 15 14 15 17 17 19 19 16 16 15 13 19 18 17 19 21 19 26 23 24 26 29 27 29 26 26 25 22 35 47 44 43
22 21 21 20 18 15 15 14 13 11 12 18 16 16 14 14 17 14 17 18 18 17 17 19 19 17 20 22 22 24 26 27 26 27 30 26 24 23 17 28 40 48 44 48 48
21 19 19 18 16 14 13 14 13 8 12 15 17 14 16 19 17 15 14 20 17 20 21 22 19 21 25 25 25 26 27 23 20 20 22 16 21 24 32 44 52 44 51 52 54
21 19 18 18 16 15 15 13 12 12 11 10 14 15 15 18 20 20 18 20 21 21 23 23 19 20 27 24 25 24 30 23 28 24 27 31 39 33 31 51 55 47 52 57 55
21 19 19 17 17 16 15 14 11 9 9 11 13 13 15 19 17 23 21 23 27 25 22 20 20 28 30 31 28 28 29 29 32 33 35 31 28 20 21 36 46 44 36 46 58
21 18 19 19 17 17 16 15 13 13 13 12 14 13 12 19 23 20 24 22 23 25 23 25 28 30 35 26 28 27 29 30 28 31 31 20 24 24 31 35 34 40 50 54 46
22 20 19 19 18 18 18 19 17 16 16 15 15 16 16 17 20 21 19 21 23 25 27 29 35 29 32 25 24 28 22 27 29 30 33 35 29 22 35 39 36 40 42 43 39
22 23 20 20 20 17 19 18 19 19 17 16 16 18 19 20 20 20 20 23 21 21 19 23 26 24 24 22 24 22 23 25 31 32 34 37 9 22 27 29 35 34 36 40 42
22 22 22 21 20 19 19 20 20 20 18 17 19 19 22 23 23 20 21 24 22 23 26 24 24 24 20 20 23 24 25 25 28 31 28 27 10 20 25 33 37 37 42 41 46
22 24 22 21 19 19 21 22 21 17 18 20 21 23 25 25 25 24 22 24 23 24 21 22 22 23 20 17 21 24 22 24 27 28 23 26 26 24 27 33 40 43 47 49 50
23 22 23 25 22 20 21 22 21 19 20 22 25 26 29 28 27 24 25 26 23 26 22 24 23 24 22 23 26 25 24 26 26 24 27 24 28 27 32 40 43 49 51 53 47
23 25 23 23 24 23 21 20 21 20 21 23 25 28 30 27 27 25 26 27 24 25 23 23 22 23 22 21 23 24 23 25 23 24 26 27 29 30 37 42 46 49 50 50 48
19 23 23 23 23 23 22 21 19 20 21 23 25 28 27 27 23 25 26 26 25 24 23 23 23 22 21 20 22 21 24 19 21 23 27 29 31 36 40 41 42 45 43 42 40
Wind_Direction
316 311 308 299 286 281 281 278 278 279 279 283 289 292 297 307 319 308 317 314 305 271 242 218 212 215 219 219 222 224 228 231 234 236 238 239 242 239 235 236 237 238 240 243 246
311 309 312 308 300 283 279 278 279 279 278 277 283 290 298 309 323 309 318 315 298 264 241 212 206 208 215 218 221 225 230 232 238 241 238 237 243 253 248 238 234 240 239 244 240
314 317 310 312 307 296 287 282 282 279 279 279 282 288 295 307 322 316 317 322 296 255 239 209 200 199 204 212 219 223 229 231 232 239 243 248 252 250 253 249 241 242 242 235 238
309 312 315 311 308 299 293 288 281 280 277 278 279 284 291 301 315 329 302 325 304 256 236 212 201 198 196 203 213 218 221 228 235 241 246 245 245 250 253 257 252 248 246 248 243
302 307 314 312 310 305 297 287 282 282 279 277 277 280 287 293 307 321 317 284 311 251 225 218 210 205 195 201 209 215 222 227 235 240 243 246 249 250 252 255 253 252 257 258 258
293 295 300 307 308 307 305 295 290 285 281 277 276 277 281 288 294 309 317 274 233 220 203 212 223 219 203 202 210 217 223 225 230 234 238 242 246 250 251 249 248 248 245 250 246
287 290 294 296 303 300 307 302 294 291 284 278 274 273 274 279 286 292 301 316 227 206 200 199 210 231 222 214 216 222 226 232 234 239 242 246 246 252 249 251 249 249 249 246 240
298 296 297 295 293 304 307 310 304 295 289 288 276 269 268 270 276 283 287 293 296 217 206 202 203 208 217 227 229 234 234 238 241 240 244 247 247 250 250 252 252 249 250 250 249
310 312 315 303 290 294 303 312 311 307 301 284 274 271 266 263 264 270 273 274 272 253 209 205 207 210 211 214 222 232 238 245 243 246 247 250 251 251 253 251 254 254 253 253 254
315 312 308 303 289 287 292 300 304 306 311 318 271 270 268 265 260 252 262 266 255 250 227 215 212 212 216 216 213 243 254 227 232 249 247 247 250 249 254 253 253 255 256 256 254
319 311 307 316 298 300 294 298 304 305 309 311 307 274 264 259 263 255 252 251 251 244 231 224 221 224 223 225 215 223 224 233 236 245 248 249 250 251 253 254 252 253 252 255 257
318 312 307 308 305 305 300 306 312 313 307 306 310 303 271 261 254 259 252 248 245 237 220 219 227 229 229 240 238 239 242 246 248 254 254 254 254 254 255 257 257 255 256 256 256
321 318 313 308 302 306 304 303 304 307 305 305 307 304 296 276 256 250 254 248 243 236 231 222 219 235 239 237 237 241 245 249 251 256 266 266 261 263 261 257 255 258 256 254 254
322 320 317 316 309 306 308 303 304 304 303 308 314 305 300 295 280 269 243 237 246 239 237 236 235 242 245 251 250 250 257 251 259 264 267 266 272 271 276 274 269 268 259 255 252
316 311 310 308 305 305 308 309 312 311 319 305 313 305 302 298 297 296 264 230 238 238 237 248 242 247 248 251 253 256 260 265 266 270 273 271 280 284 284 280 278 259 260 266 263
319 319 316 314 311 313 315 316 317 311 287 296 304 304 299 299 300 301 285 252 226 237 232 238 256 252 252 254 261 262 266 267 273 278 276 287 283 273 257 244 259 271 281 272 271
316 320 319 321 320 317 317 321 314 309 305 304 305 305 304 298 297 291 274 275 250 250 249 246 254 270 262 261 271 272 270 278 280 270 277 275 255 258 259 271 278 279 274 274 273
316 318 320 321 318 311 310 316 314 314 315 317 307 301 286 284 292 288 273 273 263 248 252 258 243 235 250 272 276 270 277 273 272 267 263 249 264 278 278 287 284 280 280 277 272
314 314 315 316 319 319 309 307 304 307 319 333 325 315 301 292 282 284 270 251 258 260 258 257 254 261 266 272 276 270 271 268 278 282 284 294 298 312 295 277 290 300 294 288 295
311 311 310 310 311 314 310 300 296 296 305 317 323 325 301 281 287 278 277 265 249 258 258 257 263 261 271 274 272 268 268 272 278 282 287 282 276 291 264 267 271 277 289 289 290
314 312 307 306 307 306 311 306 296 290 293 301 310 315 313 296 290 285 277 270 256 252 255 257 256 257 268 275 270 276 268 272 272 278 289 296 293 260 262 285 285 291 290 288 287
315 313 309 305 304 302 305 307 302 292 285 291 300 304 304 302 289 281 276 269 264 259 254 253 258 264 265 267 272 265 265 267 277 293 294 297 316 283 282 288 289 294 293 288 287
323 315 307 306 303 305 300 304 302 294 287 288 297 300 301 303 292 280 273 268 264 257 253 260 265 266 268 265 265 262 263 271 278 287 295 278 289 264 291 305 298 295 290 299 292
320 322 311 302 298 297 299 301 301 287 287 293 297 299 302 301 291 283 271 266 262 258 264 265 264 262 248 201 250 265 267 275 285 288 281 278 287 297 292 289 287 296 298 296 294
316 320 313 307 299 293 293 295 295 293 294 297 298 301 303 301 290 280 264 262 256 258 261 265 267 261 251 242 249 265 275 284 290 280 278 288 287 296 289 297 304 302 303 301 302
312 318 313 304 297 294 293 291 291 291 296 297 300 305 305 298 291 279 263 255 260 258 259 266 269 263 253 250 258 267 279 285 278 276 285 289 299 298 305 306 307 307 307 305 301
301 313 315 307 302 296 294 293 291 294 297 299 303 308 305 302 290 269 258 253 253 256 259 268 267 260 253 255 265 280 283 271 269 282 292 301 311 310 310 314 314 314 310 307 307
Height
5798 5795 5792 5790 5788 5786 5784 5782 5781 5779 5777 5776 5775 5774 5772 5768 5763 5757 5752 5747 5741 5736 5733 5734 5740 5750 5758 5767 5775 5783 5786 5792 5802 5806 5811 5818 5812 5824 5824 5826 5834 5841 5840 5842 5854
5794 5790 5787 5784 5781 5779 5778 5776 5775 5774 5772 5771 5769 5768 5766 5762 5757 5752 5749 5742 5739 5735 5734 5735 5739 5746 5755 5764 5770 5776 5782 5791 5799 5799 5801 5808 5802 5815 5810 5818 5825 5831 5833 5837 5843
5789 5786 5782 5779 5776 5774 5772 5771 5770 5768 5767 5765 5763 5762 5760 5757 5753 5748 5745 5741 5738 5736 5735 5736 5739 5744 5752 5760 5767 5772 5779 5787 5788 5790 5797 5801 5803 5806 5806 5810 5819 5821 5822 5825 5833
5786 5782 5778 5775 5772 5769 5767 5765 5764 5763 5761 5760 5759 5758 5755 5753 5751 5746 5742 5740 5737 5735 5737 5737 5740 5744 5749 5757 5763 5768 5773 5778 5782 5787 5790 5793 5795 5798 5801 5807 5809 5813 5816 5820 5826
5781 5778 5775 5771 5768 5765 5762 5760 5758 5757 5756 5755 5754 5754 5752 5749 5747 5743 5740 5738 5737 5736 5736 5739 5741 5744 5747 5753 5759 5765 5769 5773 5778 5782 5784 5787 5789 5792 5796 5799 5803 5806 5809 5814 5819
5776 5773 5770 5767 5764 5761 5758 5756 5754 5752 5751 5750 5749 5749 5748 5746 5744 5742 5739 5736 5735 5735 5736 5739 5742 5744 5746 5750 5756 5760 5765 5769 5773 5776 5778 5780 5784 5786 5790 5791 5795 5797 5801 5806 5810
5769 5767 5764 5761 5760 5756 5754 5751 5749 5747 5745 5745 5744 5744 5744 5743 5741 5739 5737 5735 5734 5734 5735 5736 5740 5744 5745 5748 5752 5756 5762 5765 5768 5771 5773 5775 5780 5781 5783 5784 5788 5790 5794 5796 5801
5762 5760 5757 5755 5754 5752 5749 5747 5745 5743 5741 5740 5739 5739 5738 5738 5737 5736 5735 5734 5732 5732 5733 5735 5737 5739 5743 5745 5751 5754 5757 5760 5763 5765 5768 5769 5774 5775 5776 5777 5780 5783 5785 5788 5791
5758 5755 5752 5750 5749 5747 5745 5743 5740 5739 5737 5735 5734 5733 5734 5733 5733 5733 5733 5732 5731 5730 5730 5733 5735 5737 5740 5743 5747 5750 5754 5757 5759 5759 5763 5764 5767 5767 5769 5772 5773 5774 5776 5778 5780
5756 5753 5750 5747 5745 5742 5740 5738 5736 5734 5732 5729 5728 5729 5729 5728 5728 5729 5729 5730 5729 5728 5728 5729 5732 5735 5738 5741 5746 5753 5752 5753 5754 5754 5756 5757 5759 5761 5762 5764 5766 5767 5767 5767 5771
5754 5752 5749 5746 5742 5739 5737 5734 5733 5731 5728 5726 5725 5723 5723 5723 5724 5724 5725 5726 5726 5726 5726 5727 5729 5731 5734 5736 5738 5739 5743 5746 5747 5747 5749 5751 5752 5754 5754 5756 5758 5758 5760 5761 5762
5751 5749 5746 5743 5739 5736 5733 5730 5727 5726 5725 5722 5720 5718 5718 5717 5718 5719 5721 5722 5722 5723 5724 5725 5726 5727 5728 5729 5733 5736 5738 5740 5741 5741 5742 5743 5745 5747 5748 5748 5749 5750 5751 5753 5753
5749 5746 5742 5740 5736 5733 5730 5727 5724 5722 5720 5719 5717 5715 5713 5714 5712 5714 5716 5717 5718 5718 5720 5722 5726 5723 5725 5726 5728 5730 5731 5732 5733 5732 5734 5735 5734 5738 5739 5740 5739 5740 5742 5742 5743
5746 5743 5738 5736 5733 5729 5726 5724 5721 5719 5715 5717 5714 5712 5711 5710 5709 5709 5708 5711 5714 5715 5716 5718 5719 5719 5720 5721 5723 5725 5725 5726 5727 5727 5729 5729 5729 5731 5731 5731 5730 5731 5732 5730 5728
5741 5738 5734 5730 5728 5725 5723 5720 5718 5716 5715 5712 5710 5709 5708 5707 5707 5705 5705 5704 5708 5711 5713 5714 5713 5715 5716 5717 5717 5720 5717 5720 5721 5721 5721 5724 5721 5726 5726 5726 5726 5719 5715 5720 5722
5736 5733 5730 5726 5723 5721 5719 5717 5715 5715 5712 5709 5706 5704 5704 5703 5702 5701 5703 5703 5703 5706 5707 5708 5709 5711 5712 5711 5712 5713 5713 5713 5715 5715 5714 5718 5720 5723 5721 5715 5710 5704 5707 5705 5706
5732 5729 5726 5723 5720 5718 5716 5715 5713 5710 5709 5706 5703 5701 5700 5699 5699 5697 5698 5699 5700 5701 5702 5702 5704 5706 5705 5707 5707 5707 5707 5709 5713 5716 5715 5718 5711 5712 5707 5699 5695 5701 5695 5692 5691
5728 5725 5722 5719 5717 5715 5713 5712 5710 5707 5704 5703 5700 5699 5698 5697 5696 5695 5694 5695 5696 5696 5696 5698 5700 5700 5699 5701 5701 5702 5700 5703 5700 5703 5704 5704 5700 5702 5695 5681 5680 5683 5678 5675 5677
5725 5721 5719 5716 5713 5711 5710 5708 5706 5704 5702 5699 5697 5695 5693 5692 5692 5689 5689 5688 5690 5690 5691 5692 5694 5692 5694 5693 5696 5695 5694 5693 5691 5690 5688 5690 5690 5690 5688 5676 5669 5665 5660 5655 5655
5721 5717 5714 5712 5709 5707 5705 5704 5702 5700 5698 5695 5693 5692 5690 5687 5686 5685 5682 5683 5683 5683 5684 5686 5686 5687 5684 5689 5687 5687 5686 5686 5684 5681 5680 5685 5683 5684 5674 5668 5664 5659 5656 5649 5645
5716 5712 5709 5707 5704 5703 5701 5698 5697 5695 5693 5692 5689 5687 5686 5684 5681 5679 5678 5677 5676 5676 5677 5678 5677 5682 5678 5680 5680 5677 5680 5677 5676 5676 5673 5672 5674 5670 5661 5660 5656 5651 5645 5639 5635
5710 5708 5704 5702 5700 5697 5695 5692 5691 5689 5687 5687 5685 5683 5681 5678 5676 5674 5673 5671 5670 5670 5671 5669 5670 5671 5672 5672 5671 5671 5671 5671 5667 5667 5664 5660 5665 5656 5655 5652 5646 5642 5636 5629 5624
5704 5702 5699 5696 5694 5691 5689 5687 5685 5683 5681 5680 5679 5677 5674 5672 5669 5668 5667 5664 5664 5664 5663 5664 5664 5664 5665 5667 5663 5664 5663 5663 5662 5660 5658 5654 5658 5651 5647 5644 5639 5633 5626 5619 5612
5698 5695 5694 5691 5689 5686 5683 5681 5678 5677 5675 5673 5672 5670 5667 5665 5662 5660 5659 5658 5658 5657 5658 5657 5658 5658 5660 5661 5657 5656 5656 5656 5655 5651 5649 5645 5642 5644 5642 5636 5628 5619 5613 5606 5599
5691 5689 5685 5684 5682 5679 5677 5675 5672 5671 5669 5666 5664 5662 5659 5657 5653 5651 5650 5649 5651 5650 5651 5650 5651 5650 5651 5651 5650 5650 5650 5649 5646 5644 5640 5640 5637 5637 5631 5621 5615 5607 5599 5591 5586
5682 5681 5679 5676 5674 5672 5670 5668 5665 5664 5662 5660 5658 5655 5651 5648 5644 5643 5641 5642 5643 5643 5644 5644 5644 5643 5644 5644 5643 5642 5643 5641 5639 5638 5634 5632 5627 5625 5618 5611 5603 5594 5586 5580 5573
5675 5673 5670 5669 5666 5666 5662 5660 5658 5657 5655 5652 5650 5647 5643 5639 5637 5634 5634 5634 5635 5636 5637 5637 5637 5637 5638 5638 5636 5638 5635 5635 5634 5631 5628 5622 5620 5615 5609 5601 5593 5585 5577 5568 5561